Regional Weather Roundup
Issued by NWS Mt. Holly, NJ

Home | Current Version | Previous Version | Text Only | Print | Product List | Glossary On
Versions: 1 2 3 4 5 6 7 8 9 10 11 12 13 14 15 16 17 18 19 20 21 22 23 24 25 26 27 28 29 30 31 32 33 34 35 36 37 38 39 40 41 42 43 44 45 46 47 48 49 50
000
ASUS41 KPHI 241511
RWRPHI

REGIONAL WEATHER ROUNDUP
NATIONAL WEATHER SERVICE MOUNT HOLLY NJ
1100 AM EDT FRI MAR 24 2017

NOTE:  "FAIR" INDICATES FEW OR NO CLOUDS BELOW 12,000 FEET WITH NO
SIGNIFICANT WEATHER AND/OR OBSTRUCTIONS TO VISIBILITY.

 * = STATION DOES NOT REPORT PRECIPITATION (E.G. RAIN, SNOW, ETC.)
        OR FOG.

NJZ015>026-241600-
SOUTHERN NEW JERSEY

CITY           SKY/WX    TMP DP  RH WIND       PRES   REMARKS
POMONA         MOSUNNY   49  24  37 SW15G22   30.46F
WILDWOOD*      MOSUNNY   48  26  42 S15G24    30.49F
MILLVILLE      CLOUDY    46  25  43 S8        30.47F
WRIGHTSTOWN    CLOUDY    44  25  45 SW13G21   30.41F
MOUNT HOLLY    CLOUDY    46  17  31 S8        30.44F
TRENTON        CLOUDY    42  23  46 SW15      30.41F

$$
NJZ001>014-241600-
NORTHERN NEW JERSEY

CITY           SKY/WX    TMP DP  RH WIND       PRES   REMARKS
SUSSEX         LGT RAIN  38  24  57 SW12G20   30.37S WCI  30
ANDOVER*         N/A     38  23  55 S8        30.37F WCI  32
MORRISTOWN     CLOUDY    41  21  45 SW12G20   30.40F
NEWARK         CLOUDY    45  22  40 S18       30.41F
TETERBORO      PTSUNNY   45  23  42 S14G24    30.39F
CALDWELL       CLOUDY    43  20  39 SW5       30.41F
SOMERVILLE     CLOUDY    44  23  43 S9        30.38F
ALLAIRE*       CLOUDY    49  20  31 SW10G24   30.44F
TOMS RIVER*    CLOUDY    49  23  36 SW13G23   30.45F

$$
PAZ043-044-047-054-055-060>062-066>071-241600-
EASTERN PENNSYLVANIA

CITY           SKY/WX    TMP DP  RH WIND       PRES   REMARKS
PHILADELPHIA   CLOUDY    45  26  47 SW14G25   30.43F
NORTH PHILA    CLOUDY    46  22  38 SW16      30.44F
BLUE BELL*     CLOUDY    41  28  60 S13       30.39F
QUAKERTOWN*    CLOUDY    41  28  60 SW12G17   30.39F
PERKASIE*      CLOUDY    43  27  52 SW12G21   30.39F
POTTSTOWN      CLOUDY    41  27  57 S10       30.41F
LANCASTER      LGT RAIN  41  29  62 S8        30.38F
COATESVILLE    CLOUDY    41  28  60 S8G17     30.40S
READING        LGT RAIN  39  30  70 S14       30.38S WCI  31
ALLENTOWN      LGT RAIN  42  27  55 S9        30.38F
MOUNT POCONO   MIX PCPN  31  25  78 SW9       30.28R WCI  23
HAZLETON       MIX PCPN  32  28  86 S3        30.32S
LEHIGHTON      DRIZZLE   37  28  70 CALM      30.38S
WILKES BARRE   RAIN      36  29  75 S7        30.29F WCI  30

$$
DEZALL-MDZ008-012-015-019-020-241600-
DELAWARE AND EASTERN MARYLAND

CITY           SKY/WX    TMP DP  RH WIND       PRES   REMARKS
WILMINGTON     CLOUDY    44  29  55 S13       30.44F
DOVER          CLOUDY    46  34  63 S14       30.45F
GEORGETOWN     CLOUDY    49  22  34 SW12      30.49F
ABERDEEN       CLOUDY    45  28  51 SW14G24   30.44F
PATUXENT       CLOUDY    44  26  49 SW12      30.48F
OCEAN CITY     CLOUDY    47  33  58 S10G18    30.50F
WALLOPS ISLAND MOSUNNY   49  37  63 S13       30.52S
CAMBRIDGE      SUNNY     48  25  40 S14       30.48F
SALISBURY      MOSUNNY   48  25  40 SW14G20   30.49F

$$
PAZ001-021-NYZ056-072-MDZ011-DCZ001-241600-
OTHER NEARBY LOCATIONS

CITY           SKY/WX    TMP DP  RH WIND       PRES   REMARKS
HARRISBURG     CLOUDY    40  29  64 S9G21     30.37F WCI  34
STATE COLLEGE  CLOUDY    39  30  70 SW9       30.25F WCI  33
WILLIAMSPORT   CLOUDY    35  26  69 E13G20    30.29F WCI  26
BINGHAMTON     RAIN      30  30 100 S13       30.18F FOG     WCI  20
NEW YORK CITY  MOSUNNY   44  23  43 VRB3      30.43F
BALTIMORE      LGT RAIN  44  31  60 SW10G22   30.42F
WASHINGTON DC  LGT RAIN  40  35  83 S13       30.44F WCI  32

$$



USA.gov is the U.S. government's official web portal to all federal, state and local government web resources and services.